Wind_Speed
17 19 18 17 16 16 15 16 18 19 17 17 18 20 22 22 21 20 20 20 21 20 21 22 21 19 22 24 25 25 23 21 19 18 16 16 15 14 14 15 15 14 14
19 20 19 19 16 17 17 18 19 17 17 17 18 20 23 23 22 21 22 23 23 22 23 23 23 22 25 25 26 25 23 21 19 18 17 17 16 15 16 15 15 15 15
21 22 20 19 17 18 17 18 19 18 18 17 19 22 23 22 20 21 21 22 23 24 27 26 25 25 27 27 26 25 25 23 19 18 17 16 16 16 16 15 15 16 16
23 24 22 20 19 19 19 18 19 18 18 18 20 20 21 19 19 21 22 23 22 23 25 27 30 30 28 31 29 26 26 23 21 19 18 17 17 17 16 15 15 15 17
23 23 22 20 20 20 21 20 20 18 19 17 16 15 17 18 18 20 21 23 23 26 27 28 30 34 33 29 31 28 26 24 21 20 19 18 18 18 17 17 17 17 17
25 24 23 23 22 22 23 22 20 18 19 14 15 16 16 17 18 19 21 23 25 26 26 31 30 36 32 29 30 29 27 24 22 20 20 19 18 18 18 19 20 18 15
27 24 24 24 24 24 24 23 21 19 19 15 16 16 16 16 17 18 23 24 25 24 28 34 36 39 39 27 31 31 28 25 24 21 19 18 18 20 19 19 20 18 18
28 27 27 26 26 27 26 24 23 21 20 17 17 15 15 15 17 19 21 23 24 31 30 30 31 39 39 33 33 29 29 27 24 21 22 20 12 24 14 17 21 23 20
30 27 28 30 28 27 27 26 25 23 22 20 17 15 15 15 17 18 21 20 22 20 24 27 35 35 45 37 34 30 30 25 23 23 23 25 27 23 25 21 20 14 21
31 31 31 31 30 29 28 28 27 25 24 22 18 18 15 15 17 18 20 20 21 16 18 22 24 31 35 37 33 32 29 24 23 25 26 28 28 29 30 29 28 28 25
35 35 34 32 32 31 29 30 30 28 26 24 21 19 15 17 18 19 18 22 21 19 17 21 26 32 24 29 33 28 27 22 22 26 27 29 29 33 29 30 30 28 25
39 39 38 35 34 32 30 32 32 29 27 26 24 21 18 17 19 18 18 20 20 19 17 22 31 27 29 26 29 27 29 27 23 27 20 20 29 33 31 27 26 29 28
41 41 40 38 35 33 33 34 33 31 29 28 25 24 20 18 19 19 17 18 17 21 19 14 34 29 32 24 27 25 30 32 31 29 28 25 25 30 28 28 25 22 23
39 41 42 41 36 35 35 35 34 32 31 29 26 26 23 19 20 18 17 19 16 25 24 16 20 34 29 22 22 26 29 27 37 33 32 26 29 33 33 28 27 25 23
40 39 41 43 40 38 37 37 36 33 32 30 27 28 24 21 20 18 15 18 17 11 25 20 27 25 23 22 22 25 26 28 31 35 31 30 33 30 26 24 26 27 26
43 42 42 44 43 42 41 39 38 36 34 32 29 28 26 23 21 18 15 15 14 18 28 33 30 24 24 24 25 25 27 33 33 36 34 30 30 29 22 29 21 27 23
48 46 46 45 45 42 43 42 39 37 36 34 31 29 28 25 23 20 16 15 16 15 31 32 25 31 31 29 32 36 35 34 38 33 33 34 35 37 32 28 27 26 27
55 51 49 49 47 44 44 43 40 39 38 37 33 31 29 28 25 22 19 19 16 20 21 30 27 23 31 27 28 35 37 38 37 36 35 36 39 37 39 36 33 31 29
55 55 54 51 51 49 46 45 42 42 40 39 35 32 31 30 28 25 22 21 17 17 18 27 27 24 29 27 24 33 39 39 38 37 34 33 34 38 38 36 34 34 34
57 56 55 53 53 53 51 49 46 45 43 41 37 35 33 32 31 29 24 23 22 19 20 28 33 34 32 34 30 36 45 41 40 41 41 40 38 37 40 38 36 36 36
61 59 57 57 56 56 55 52 51 48 46 44 42 39 36 35 33 32 30 26 26 26 25 25 32 35 37 41 40 37 46 44 46 47 46 44 42 39 37 39 38 38 37
65 64 62 61 59 59 58 57 56 53 51 49 45 43 40 38 36 35 34 31 30 30 29 29 27 30 33 41 41 40 40 45 49 45 45 45 44 45 44 46 45 43 44
69 67 66 64 63 62 62 59 59 57 54 52 48 45 41 40 37 36 36 35 33 33 32 29 29 29 28 34 46 43 47 48 51 50 48 49 49 50 52 51 49 50 50
72 69 67 67 66 66 65 62 60 60 56 52 51 49 46 44 42 39 38 37 36 35 34 32 30 29 29 28 36 43 45 48 50 48 47 46 48 52 54 56 56 55 54
75 75 70 68 67 69 68 65 61 63 60 56 55 53 51 49 46 44 41 40 38 37 36 34 33 31 31 34 32 31 38 41 46 47 48 45 44 46 49 53 53 53 53
74 77 75 73 70 68 70 70 65 65 65 61 59 56 53 51 49 47 44 42 41 39 38 37 37 35 33 35 37 38 34 36 37 38 39 41 43 43 43 44 48 50 52
Wind_Direction
247 249 249 252 257 264 269 271 277 277 278 281 281 278 273 268 263 260 256 257 259 252 245 242 240 233 230 226 223 223 222 224 221 220 214 209 205 201 200 206 207 205 205
241 246 248 250 254 265 269 274 272 271 277 281 283 280 273 270 263 262 260 256 257 254 246 239 236 233 228 226 223 221 222 224 221 218 213 209 206 204 204 207 208 210 210
244 246 245 249 256 263 266 273 270 276 281 282 283 278 272 269 262 261 255 257 258 258 253 240 233 233 229 222 219 220 221 222 218 218 215 211 206 208 208 206 208 209 212
244 247 246 248 252 260 265 266 266 273 280 287 284 273 268 269 258 256 257 264 261 259 253 245 233 228 231 218 217 216 220 220 216 215 213 210 211 208 211 206 210 210 214
246 248 247 248 253 259 262 262 264 273 282 289 279 273 271 265 257 259 262 266 263 259 252 243 235 230 230 209 213 215 216 219 217 216 214 215 214 215 214 213 215 216 219
244 245 245 248 252 255 259 259 259 269 280 282 276 277 274 263 263 268 271 275 265 259 249 242 234 227 231 218 214 214 216 217 216 216 218 218 217 217 217 215 217 217 215
250 248 247 250 253 255 258 258 258 264 274 270 274 278 272 267 268 278 273 274 265 259 251 244 236 223 224 222 219 215 213 215 217 215 217 221 225 220 220 216 216 214 216
250 247 250 249 252 256 256 256 256 259 267 265 268 282 273 275 276 278 278 277 270 265 248 235 225 224 215 210 219 210 210 214 218 214 217 213 200 170 210 206 215 215 208
252 249 246 248 251 255 257 255 255 255 259 262 265 273 269 271 279 276 279 268 277 263 252 246 237 221 225 199 211 209 211 213 215 214 222 222 212 221 192 188 179 176 173
253 250 246 250 254 254 257 256 253 253 255 260 263 267 270 268 274 278 278 269 272 271 256 242 236 238 225 198 200 202 205 207 214 220 222 226 223 217 215 215 213 216 218
259 255 252 249 252 254 255 255 254 252 255 257 258 265 272 269 269 274 282 271 274 266 271 247 232 215 199 198 191 197 200 199 204 219 221 225 235 221 223 216 216 219 215
263 261 259 255 250 253 253 253 253 252 253 255 254 261 264 270 270 273 281 272 270 263 265 251 213 214 215 190 192 193 206 196 204 197 181 216 223 230 213 216 219 221 213
262 264 263 258 253 249 249 248 250 250 252 252 251 255 258 265 268 270 279 276 268 256 260 231 222 209 192 199 179 201 198 209 212 213 202 207 224 209 205 210 208 211 212
258 259 263 262 258 251 248 244 247 246 250 251 250 253 255 258 268 270 276 276 260 255 237 243 201 202 196 181 194 208 206 215 215 230 219 226 219 202 207 216 223 221 220
257 255 257 258 255 251 247 242 242 242 248 249 248 250 251 254 261 269 273 271 277 237 197 207 189 193 202 202 204 215 227 218 215 208 222 206 202 209 213 217 222 222 219
255 253 252 254 253 248 246 243 243 243 243 246 247 248 248 249 255 266 262 267 257 244 194 204 204 192 198 202 202 203 206 196 202 206 202 199 203 198 204 209 211 219 221
251 250 250 249 250 248 246 245 242 242 241 243 245 246 246 245 249 254 255 256 243 212 183 187 193 199 203 208 204 198 201 200 197 207 203 197 207 213 218 223 224 227 229
254 249 246 246 246 245 245 245 241 239 239 242 243 243 245 245 242 243 249 252 241 236 262 213 192 201 208 212 211 212 209 208 203 209 212 215 220 218 220 224 225 229 229
252 251 248 246 246 244 243 243 242 239 239 242 242 243 242 245 244 240 239 248 239 231 240 205 207 216 213 217 227 215 202 205 209 210 205 213 226 227 227 228 234 234 234
252 251 251 248 251 247 244 243 242 240 240 242 242 243 242 243 244 244 234 239 249 238 226 237 240 250 231 225 221 216 210 214 225 228 229 233 238 243 245 230 236 239 240
246 247 248 247 244 246 245 243 244 243 241 241 243 241 241 240 241 242 242 230 238 243 241 233 235 240 233 223 223 218 222 226 227 230 234 235 239 243 243 234 237 241 241
239 241 244 243 243 243 241 243 242 243 242 241 241 243 242 241 240 241 243 239 233 236 240 234 233 230 231 226 228 222 224 227 228 228 231 237 242 242 246 239 235 237 240
238 237 239 240 241 242 242 238 242 243 242 243 243 244 245 245 242 239 241 246 242 237 240 244 233 225 238 237 230 232 227 227 232 238 240 242 244 246 246 242 238 238 238
237 235 234 237 237 239 241 240 237 240 242 242 242 243 242 241 242 238 238 241 246 243 243 245 249 237 228 233 238 231 230 227 231 235 238 242 244 245 245 246 243 241 240
236 235 234 234 235 238 238 239 235 241 239 240 241 242 243 242 241 240 237 237 243 247 244 243 244 247 239 232 234 246 238 236 238 237 239 242 243 243 244 245 246 246 244
233 232 232 233 232 233 236 238 235 236 240 238 239 241 241 242 243 243 239 238 239 244 248 245 242 243 244 241 238 238 243 250 243 245 247 249 250 252 253 253 251 250 246
Height
5796 5795 5796 5798 5800 5800 5800 5801 5801 5801 5802 5802 5801 5802 5802 5803 5804 5805 5806 5807 5808 5809 5812 5813 5815 5818 5820 5822 5825 5827 5829 5832 5834 5836 5839 5841 5843 5845 5847 5850 5852 5855 5857
5790 5791 5793 5795 5796 5797 5797 5798 5798 5798 5798 5798 5798 5798 5799 5799 5800 5801 5802 5802 5804 5805 5808 5810 5813 5815 5817 5819 5822 5824 5827 5829 5832 5834 5837 5839 5842 5844 5846 5848 5851 5853 5855
5786 5787 5789 5790 5791 5792 5793 5794 5795 5795 5795 5795 5795 5794 5794 5795 5796 5796 5797 5798 5800 5801 5803 5807 5809 5810 5813 5816 5818 5822 5825 5827 5830 5832 5835 5838 5841 5843 5845 5847 5850 5852 5854
5782 5784 5786 5787 5788 5789 5789 5790 5791 5791 5791 5791 5790 5790 5790 5791 5791 5792 5793 5794 5795 5798 5800 5802 5804 5805 5808 5812 5816 5818 5822 5825 5828 5830 5834 5837 5839 5841 5844 5846 5848 5850 5852
5778 5780 5782 5783 5784 5785 5785 5786 5787 5787 5788 5787 5787 5786 5787 5786 5787 5788 5789 5789 5791 5793 5795 5797 5799 5801 5805 5805 5811 5814 5818 5823 5827 5830 5832 5835 5837 5840 5842 5844 5847 5849 5850
5774 5777 5777 5779 5780 5780 5781 5782 5783 5783 5784 5783 5783 5782 5782 5783 5783 5785 5785 5785 5785 5788 5790 5791 5793 5797 5799 5802 5806 5810 5816 5821 5825 5828 5831 5833 5835 5837 5840 5842 5845 5846 5849
5770 5773 5773 5774 5775 5776 5777 5778 5779 5779 5780 5780 5779 5778 5778 5779 5779 5779 5780 5780 5779 5783 5784 5785 5787 5790 5794 5796 5802 5807 5814 5818 5822 5827 5829 5833 5834 5834 5838 5840 5842 5843 5845
5765 5768 5768 5770 5770 5771 5773 5774 5774 5775 5776 5776 5776 5776 5775 5775 5775 5775 5775 5775 5776 5776 5778 5780 5782 5786 5789 5791 5799 5805 5810 5815 5820 5825 5827 5832 5825 5819 5836 5839 5838 5839 5843
5760 5762 5763 5765 5765 5767 5768 5769 5770 5771 5771 5773 5772 5772 5772 5771 5772 5771 5771 5771 5772 5770 5773 5775 5779 5782 5780 5788 5796 5802 5808 5812 5817 5822 5825 5828 5832 5830 5839 5837 5822 5836 5838
5754 5755 5758 5759 5760 5762 5763 5764 5765 5767 5767 5769 5768 5768 5768 5766 5767 5767 5767 5767 5768 5769 5771 5772 5774 5777 5779 5787 5792 5799 5803 5808 5814 5818 5821 5823 5827 5830 5833 5836 5838 5839 5840
5747 5748 5750 5753 5753 5755 5758 5758 5760 5761 5762 5764 5764 5764 5765 5763 5763 5763 5764 5764 5763 5765 5768 5768 5771 5772 5774 5783 5790 5797 5801 5806 5810 5812 5815 5818 5822 5826 5830 5832 5835 5838 5841
5738 5740 5742 5745 5747 5749 5751 5751 5754 5755 5757 5759 5760 5761 5761 5759 5759 5758 5760 5760 5760 5761 5763 5763 5765 5771 5774 5781 5786 5793 5798 5802 5806 5809 5811 5814 5817 5822 5827 5830 5833 5836 5839
5731 5732 5734 5737 5739 5743 5742 5744 5747 5749 5752 5753 5755 5755 5758 5756 5755 5755 5756 5757 5757 5757 5758 5757 5762 5768 5772 5779 5783 5789 5794 5799 5802 5806 5810 5811 5815 5819 5824 5827 5831 5834 5836
5723 5723 5725 5727 5731 5734 5736 5738 5740 5742 5745 5746 5750 5750 5751 5752 5750 5751 5752 5752 5754 5753 5753 5757 5757 5765 5771 5775 5780 5785 5790 5794 5797 5802 5806 5809 5813 5817 5821 5825 5828 5831 5834
5715 5716 5716 5718 5722 5725 5728 5731 5732 5735 5738 5741 5744 5745 5746 5747 5746 5746 5748 5747 5747 5748 5751 5754 5759 5764 5767 5772 5776 5781 5785 5789 5793 5797 5802 5805 5810 5814 5818 5821 5824 5828 5831
5705 5707 5707 5709 5712 5715 5719 5723 5726 5728 5730 5733 5738 5740 5741 5742 5742 5742 5744 5745 5745 5745 5748 5754 5757 5762 5766 5770 5774 5777 5780 5786 5790 5794 5798 5803 5806 5811 5815 5818 5821 5825 5828
5690 5694 5697 5700 5702 5707 5710 5714 5719 5720 5723 5727 5730 5734 5735 5737 5738 5739 5739 5742 5745 5746 5748 5752 5754 5759 5764 5768 5772 5776 5778 5784 5788 5791 5797 5802 5805 5808 5811 5814 5818 5822 5824
5679 5684 5685 5690 5693 5698 5701 5705 5709 5712 5715 5719 5723 5727 5729 5732 5733 5735 5737 5737 5741 5744 5745 5748 5751 5756 5761 5764 5769 5773 5775 5780 5785 5789 5793 5798 5802 5806 5809 5812 5815 5818 5820
5668 5673 5676 5680 5684 5688 5692 5696 5700 5704 5708 5712 5716 5720 5723 5726 5727 5730 5733 5734 5737 5739 5742 5744 5749 5754 5757 5760 5764 5769 5773 5776 5781 5786 5790 5794 5798 5802 5805 5808 5811 5815 5818
5657 5661 5666 5671 5675 5678 5683 5687 5691 5695 5700 5704 5708 5712 5716 5719 5722 5723 5728 5730 5732 5735 5738 5743 5746 5750 5755 5757 5760 5764 5769 5773 5777 5781 5785 5788 5793 5797 5799 5801 5806 5810 5813
5642 5649 5653 5657 5662 5666 5673 5677 5681 5687 5691 5696 5700 5704 5708 5712 5716 5718 5720 5725 5728 5731 5733 5738 5741 5744 5747 5750 5755 5758 5764 5767 5771 5775 5779 5782 5786 5790 5793 5797 5800 5804 5807
5625 5631 5639 5643 5648 5653 5659 5666 5669 5675 5682 5686 5691 5696 5700 5704 5708 5712 5714 5717 5722 5726 5730 5733 5734 5736 5739 5743 5748 5753 5756 5762 5765 5768 5772 5775 5779 5783 5786 5789 5792 5797 5800
5608 5616 5622 5629 5634 5639 5644 5652 5658 5662 5670 5677 5683 5687 5693 5697 5701 5705 5708 5710 5714 5718 5721 5725 5727 5729 5732 5736 5741 5747 5750 5755 5759 5761 5764 5768 5771 5774 5778 5781 5785 5787 5791
5590 5598 5605 5612 5619 5624 5630 5639 5645 5650 5658 5665 5671 5676 5681 5686 5691 5696 5700 5703 5705 5709 5713 5717 5719 5722 5726 5730 5733 5738 5742 5747 5750 5753 5757 5760 5762 5766 5769 5773 5775 5777 5780
5571 5579 5587 5593 5602 5608 5615 5624 5632 5637 5644 5650 5657 5664 5670 5676 5681 5686 5691 5696 5700 5704 5708 5711 5714 5718 5721 5724 5728 5732 5736 5739 5742 5746 5748 5752 5755 5757 5760 5763 5766 5768 5770
5551 5559 5567 5575 5584 5592 5600 5607 5616 5622 5628 5636 5643 5651 5658 5665 5670 5675 5682 5687 5692 5696 5700 5705 5709 5711 5715 5718 5722 5724 5729 5733 5735 5738 5740 5744 5747 5750 5752 5755 5756 5759 5762